Weather History for KOLF - September, 2013

Change the Weather History Date:

Sunday, September 29, 2013

  Actual Average Record
Temperature  
Mean Temperature 59 °F -  
Max Temperature 78 °F 67 °F 84 °F (2012)
Min Temperature 39 °F 35 °F 25 °F (2003)
Degree Days  
Heating Degree Days 6    
Cooling Degree Days 0    
Growing Degree Days 8 (Base 50)    
Moisture  
Dew Point 36 °F    
Average Humidity 48    
Maximum Humidity 83    
Minimum Humidity 24    
Precipitation  
Precipitation 0.00 in 0.03 in 0.08 in (2014)
Month to date precipitation 1.13 0.98  
Year to date precipitation 12.77 10.65  
Sea Level Pressure  
Sea Level Pressure 29.55 in    
Wind  
Wind Speed 7 mph (WSW)    
Max Wind Speed 22 mph    
Max Gust Speed 32 mph    
Visibility 10 miles    
Events      
T = Trace of Precipitation, MM = Missing Value Source: NWS Daily Summary

Daily Weather History Graph

Daily Weather History Graph

Search for Another Location

Airport or City:

Trip Planner

Search our weather history database for the weather conditions in past years. The results will help you decide how hot, cold, wet, or windy it might be!

Date:

Astronomy

Sep. 29, 2013 Rise Set
Actual Time 6:59 AM MDT 6:44 PM MDT
Civil Twilight 6:28 AM MDT 7:15 PM MDT
Nautical Twilight 5:51 AM MDT 7:51 PM MDT
Astronomical Twilight 5:14 AM MDT 8:28 PM MDT
Moon 1:22 AM MDT (9/29) 4:00 PM MDT (9/29)
Length of Visible Light 12h 47m
Length of Day
11h 45m
Waning Crescent, 26% of the Moon is Illuminated
Sep 29
Waning Crescent
Oct 4
New
Oct 11
First Quarter
Oct 18
Full
Oct 26
Last Quarter

Hourly Weather History & Observations

Time (MDT) Temp. Windchill Dew Point Humidity Pressure Visibility Wind Dir Wind Speed Gust Speed Precip Events Conditions
12:53 AM 42.1 °F 40.2 °F 36.0 °F 79% 29.67 in 10.0 mi NNE 3.5 mph - N/A   Clear
1:53 AM 39.9 °F 36.7 °F 35.1 °F 83% 29.65 in 10.0 mi SSW 4.6 mph - N/A   Clear
2:53 AM 39.9 °F - 35.1 °F 83% 29.64 in 10.0 mi Calm Calm - N/A   Clear
3:53 AM 46.9 °F - 37.0 °F 68% 29.60 in 10.0 mi SSW 5.8 mph - N/A   Clear
4:53 AM 45.0 °F - 37.0 °F 74% 29.59 in 10.0 mi Calm Calm - N/A   Clear
5:53 AM 52.0 °F - 39.0 °F 61% 29.57 in 10.0 mi Calm Calm - N/A   Clear
6:53 AM 51.1 °F - 39.0 °F 63% 29.57 in 10.0 mi SW 3.5 mph - N/A   Clear
7:53 AM 53.1 °F - 39.9 °F 61% 29.56 in 10.0 mi SW 5.8 mph - N/A   Clear
8:53 AM 57.0 °F - 39.9 °F 53% 29.54 in 10.0 mi SSW 6.9 mph - N/A   Clear
9:53 AM 66.0 °F - 39.0 °F 37% 29.52 in 10.0 mi WSW 13.8 mph - N/A   Clear
10:53 AM 68.0 °F - 37.9 °F 33% 29.51 in 10.0 mi WSW 9.2 mph - N/A   Mostly Cloudy
11:53 AM 71.1 °F - 39.0 °F 31% 29.46 in 10.0 mi SW 12.7 mph - N/A   Mostly Cloudy
12:53 PM 77.0 °F - 37.0 °F 24% 29.44 in 10.0 mi West 20.7 mph 28.8 mph N/A   Scattered Clouds
1:53 PM 75.9 °F - 37.0 °F 24% 29.48 in 10.0 mi WSW 16.1 mph 27.6 mph N/A   Partly Cloudy
2:53 PM 72.0 °F - 39.0 °F 30% 29.50 in 10.0 mi West 17.3 mph 26.5 mph N/A   Scattered Clouds
3:53 PM 72.0 °F - 35.1 °F 26% 29.52 in 10.0 mi West 21.9 mph 32.2 mph N/A   Partly Cloudy
4:53 PM 70.0 °F - 33.1 °F 26% 29.52 in 10.0 mi West 15.0 mph 27.6 mph N/A   Partly Cloudy
5:53 PM 66.0 °F - 30.0 °F 26% 29.53 in 10.0 mi West 16.1 mph 28.8 mph N/A   Clear
6:53 PM 63.0 °F - 30.0 °F 29% 29.54 in 10.0 mi West 17.3 mph 23.0 mph N/A   Partly Cloudy
7:53 PM 61.0 °F - 30.0 °F 31% 29.56 in 10.0 mi WSW 9.2 mph - N/A   Overcast
8:53 PM 59.0 °F - 33.1 °F 38% 29.57 in 10.0 mi WSW 9.2 mph - N/A   Clear
9:53 PM 54.0 °F - 35.1 °F 49% 29.59 in 10.0 mi WSW 6.9 mph - N/A   Clear
10:53 PM 48.9 °F - 35.1 °F 59% 29.59 in 10.0 mi SSW 5.8 mph - N/A   Clear
11:53 PM 48.0 °F - 33.1 °F 56% 29.59 in 10.0 mi West 5.8 mph - N/A   Clear